This demonstration page uses our WeatherBlox Daily Observations layout. Learn more.

Left ArrowRight Arrow

Hourly Observations for May 12, 2021

Temp ( °F °C ) Dew Point ( °F °C ) Humidity (%) Winds ( mph kmh ) Pressure ( in mb ) Visibility ( mi km ) Precip ( " mm )
12:15 am 00:15 Clear 42 5.6 33 0.6 71 71 N 7 11 30.41 1030 10 16 0.00 0.00
12:35 am 00:35 Clear 42 5.3 33 0.5 71 71 N 7 11 30.41 1030 10 16 0.00 0.00
12:55 am 00:55 Clear 41 5 33 0.4 72 72 N 8 13 30.41 1030 10 16 0.00 0.00
1:15 am 01:15 Clear 40 4.6 32 0.1 73 73 N 8 13 30.41 1030 10 16 0.00 0.00
1:35 am 01:35 Clear 40 4.3 33 0.3 75 75 N 9 15 30.40 1030 10 16 0.00 0.00
1:55 am 01:55 Clear 39 4.1 33 0.3 77 77 N 9 15 30.40 1030 10 16 0.00 0.00
2:15 am 02:15 Clear 39 3.8 33 0.5 79 79 N 7 11 30.40 1030 10 16 0.00 0.00
2:35 am 02:35 Clear 39 3.8 33 0.4 79 79 NNE 7 11 30.40 1030 10 16 0.00 0.00
2:55 am 02:55 Clear 38 3.6 33 0.5 80 80 NNE 7 11 30.39 1029 10 16 0.00 0.00
3:15 am 03:15 Clear 38 3.5 33 0.3 80 80 NNE 6 9 30.40 1029 10 16 0.00 0.00
3:35 am 03:35 Clear 38 3.3 33 0.3 81 81 NNE 6 9 30.40 1029 10 16 0.00 0.00
3:55 am 03:55 Clear 38 3.1 32 0.2 81 81 N 5 7 30.40 1029 10 16 0.00 0.00
4:15 am 04:15 Clear 38 3.2 32 0.1 80 80 NNE 6 9 30.41 1030 10 16 0.00 0.00
4:35 am 04:35 Clear 37 3 32 0.1 81 81 NNE 6 9 30.41 1030 10 16 0.00 0.00
4:55 am 04:55 Clear 37 2.7 32 0 83 83 NNE 6 9 30.41 1030 10 16 0.00 0.00
5:15 am 05:15 Clear 37 2.9 32 0 81 81 NNE 6 9 30.42 1030 10 16 0.00 0.00
5:35 am 05:35 Clear 37 2.7 32 0 83 83 NNE 6 9 30.42 1030 10 16 0.00 0.00
5:55 am 05:55 Clear 37 2.5 32 0 84 84 NNE 6 9 30.43 1030 10 16 0.00 0.00
6:15 am 06:15 Clear 37 2.5 32 0 84 84 NNE 5 7 30.43 1030 10 16 0.00 0.00
6:35 am 06:35 Sunny 36 2.2 32 0 86 86 NNE 5 7 30.44 1031 10 16 0.00 0.00
6:55 am 06:55 Sunny 36 2.2 32 0 86 86 NNE 5 7 30.45 1031 10 16 0.00 0.00
7:15 am 07:15 Sunny 37 2.6 32 0.1 84 84 NNE 3 6 30.45 1031 10 16 0.00 0.00
7:35 am 07:35 Sunny 38 3.6 33 0.4 80 80 NE 3 6 30.45 1031 10 16 0.00 0.00
7:55 am 07:55 Sunny 40 4.5 33 0.6 76 76 NE 3 6 30.46 1032 10 16 0.00 0.00
8:15 am 08:15 Sunny 42 5.4 33 0.7 72 72 ENE 7 11 30.46 1031 10 16 0.00 0.00
8:35 am 08:35 Sunny 44 6.4 33 0.8 68 68 NE 6 9 30.45 1031 10 16 0.00 0.00
8:55 am 08:55 Sunny 45 7.4 32 0.2 61 61 ENE 10 17 30.46 1032 10 16 0.00 0.00
9:15 am 09:15 Sunny 46 8 34 1 62 62 ENE 10 17 30.47 1032 10 16 0.00 0.00
9:35 am 09:35 Sunny 48 8.8 34 0.9 58 58 ENE 9 15 30.47 1032 10 16 0.00 0.00
9:55 am 09:55 Sunny 49 9.5 33 0.7 55 55 E 9 15 30.46 1032 10 16 0.00 0.00
10:15 am 10:15 Sunny 50 10 34 0.9 54 54 NE 10 17 30.45 1031 10 16 0.00 0.00
10:35 am 10:35 Sunny 51 10.8 35 1.4 53 53 E 8 13 30.45 1031 10 16 0.00 0.00
10:55 am 10:55 Sunny 52 11 33 0.3 48 48 ENE 9 15 30.45 1031 10 16 0.00 0.00
11:15 am 11:15 Sunny 53 11.7 33 0.8 47 47 NE 8 13 30.44 1031 10 16 0.00 0.00
11:35 am 11:35 Sunny 53 11.7 33 0.3 46 46 ENE 7 11 30.44 1031 10 16 0.00 0.00
11:55 am 11:55 Sunny 53 11.7 33 0.5 46 46 NNE 8 13 30.44 1031 10 16 0.00 0.00
12:15 pm 12:15 Sunny 54 12.1 34 1.1 47 47 NNE 15 24 30.43 1031 10 16 0.00 0.00
12:35 pm 12:35 Sunny 54 12.1 33 0.5 45 45 NE 9 15 30.44 1031 10 16 0.00 0.00
12:55 pm 12:55 Sunny 54 12.4 34 1.2 47 47 NNE 8 13 30.43 1031 10 16 0.00 0.00
1:15 pm 13:15 Sunny 55 12.5 33 0.4 44 44 NE 10 17 30.43 1031 10 16 0.00 0.00
1:35 pm 13:35 Partly Cloudy 56 13.5 33 0.8 42 42 ENE 9 15 30.43 1030 10 16 0.00 0.00
1:55 pm 13:55 Sunny 56 13.4 37 2.5 48 48 NNE 8 13 30.42 1030 10 16 0.00 0.00
2:15 pm 14:15 Partly Cloudy 55 12.8 33 0.5 43 43 N 10 17 30.42 1030 10 16 0.00 0.00
2:35 pm 14:35 Sunny 56 13.2 33 0.5 42 42 N 6 9 30.41 1030 10 16 0.00 0.00
2:55 pm 14:55 Sunny 57 14 34 1.1 42 42 E 6 9 30.41 1030 10 16 0.00 0.00
3:15 pm 15:15 Sunny 56 13.5 33 0.6 42 42 NNE 7 11 30.41 1030 10 16 0.00 0.00
3:35 pm 15:35 Sunny 57 13.8 33 0.5 40 40 NNE 13 20 30.40 1029 10 16 0.00 0.00
3:55 pm 15:55 Sunny 57 14.1 34 1.2 42 42 NNE 9 15 30.40 1029 10 16 0.00 0.00
4:15 pm 16:15 Sunny 58 14.5 35 1.6 42 42 NE 10 17 30.38 1029 10 16 0.00 0.00
4:35 pm 16:35 Partly Cloudy 58 14.3 34 0.9 40 40 NE 7 11 30.38 1029 10 16 0.00 0.00
4:55 pm 16:55 Partly Cloudy 58 14.7 35 1.4 41 41 N 10 17 30.37 1029 10 16 0.00 0.00
5:15 pm 17:15 Partly Cloudy 58 14.5 34 1.2 41 41 N 7 11 30.36 1028 10 16 0.00 0.00
5:35 pm 17:35 Partly Cloudy 59 15.1 36 2.1 42 42 N 7 11 30.36 1028 10 16 0.00 0.00
5:55 pm 17:55 Partly Cloudy 58 14.5 33 0.6 39 39 ENE 8 13 30.36 1028 10 16 0.00 0.00
6:15 pm 18:15 Partly Cloudy 58 14.6 34 1.1 40 40 NNE 9 15 30.36 1028 10 16 0.00 0.00
6:35 pm 18:35 Mostly Cloudy 59 15 33 0.8 38 38 ENE 9 15 30.36 1028 10 16 0.00 0.00
6:55 pm 18:55 Partly Cloudy 58 14.6 33 0.4 38 38 NE 7 11 30.35 1028 10 16 0.00 0.00
7:15 pm 19:15 Partly Cloudy 58 14.5 34 0.9 40 40 NNE 10 17 30.35 1028 10 16 0.00 0.00
7:35 pm 19:35 Partly Cloudy 58 14.2 33 0.8 40 40 NE 9 15 30.36 1028 10 16 0.00 0.00
7:55 pm 19:55 Partly Cloudy 57 14.1 33 0.7 40 40 NNE 7 11 30.35 1028 10 16 0.00 0.00
8:15 pm 20:15 Partly Cloudy 57 13.9 35 1.7 44 44 ENE 7 11 30.36 1028 10 16 0.00 0.00
8:35 pm 20:35 Partly Cloudy 56 13.1 36 2.3 48 48 NE 7 11 30.36 1028 10 16 0.00 0.00
8:55 pm 20:55 Partly Cloudy 54 12 38 3.4 56 56 NNE 5 7 30.36 1028 10 16 0.00 0.00
9:15 pm 21:15 Clear 52 11.1 37 2.9 57 57 NNE 5 7 30.38 1029 10 16 0.00 0.00
9:35 pm 21:35 Clear 52 11.2 35 1.5 52 52 NNE 3 6 30.38 1029 10 16 0.00 0.00
9:55 pm 21:55 Clear 50 10.2 37 2.8 60 60 N 5 7 30.39 1029 10 16 0.00 0.00
10:15 pm 22:15 Clear 48 8.7 39 4 73 73 NNE 3 6 30.40 1029 10 16 0.00 0.00
10:35 pm 22:35 Clear 47 8.3 39 4 75 75 N 5 7 30.41 1030 10 16 0.00 0.00
10:55 pm 22:55 Clear 48 8.8 37 3 67 67 N 3 6 30.41 1030 10 16 0.00 0.00
11:15 pm 23:15 Clear 45 7.1 40 4.5 84 84 Calm 30.42 1030 10 16 0.00 0.00
11:35 pm 23:35 Clear 46 7.5 39 3.8 78 78 Calm 30.42 1030 10 16 0.00 0.00
11:55 pm 23:55 Clear 44 6.9 37 3 76 76 Calm 30.42 1030 10 16 0.00 0.00

Powered by AerisWeather